Content
SEND FEEDBACK

Daily
Averages
Monthly
Summary
United Kingdom

BALLYKELLY, NORTHERN IRELAND


Home > Europe > United Kingdom > Northern Ireland
Elevation: 13 feet     Latitude: 55 03N     Longitude: 007 00W

WEATHER
 
SELECT A DAY
Number of Records: 130,051;   Date Range: 7/1/96 - 7/27/14
 
SHARE

PRINT THIS DATA

[ ← Previous Day ]
WEATHER ALMANAC - JULY 8, 2013
[ Next Day → ]
[ °C ]   °F
We're sorry. There is no daily almanac available for Ballykelly, Northern Ireland on July 8, 2013.
WEATHER BY HOUR - JULY 8, 2013
[ °C ]   °F
Local TimeTemperatureDewpointHumidityBarometerVisibilityWind DirectionWind SpeedGust SpeedPrecipitationEventsConditions
6:50 AM64.4 °F60.8 °F88 %30.60 in6.2 miNE (40°)3.5 mphPartly Cloudy
7:20 AM64.4 °F62.6 °F94 %30.60 in6.2 miNNE (20°)3.5 mphPartly Cloudy
7:50 AM66.2 °F62.6 °F88 %30.60 inNNE (30°)3.5 mphClear
8:20 AM66.2 °F60.8 °F83 %30.60 inVariable3.5 mphClear
8:50 AM66.2 °F62.6 °F88 %30.60 inVariable2.3 mphClear
9:20 AM66.2 °F60.8 °F83 %30.60 in6.2 miVariable3.5 mphPartly Cloudy
9:50 AM69.8 °F64.4 °F83 %30.60 in6.2 miNE (40°)3.5 mphPartly Cloudy
10:20 AM71.6 °F64.4 °F78 %30.60 in6.2 miVariable3.5 mphPartly Cloudy
11:20 AM71.6 °F64.4 °F78 %30.57 in6.2 miVariable3.5 mphPartly Cloudy
11:50 AM71.6 °F66.2 °F83 %30.57 in6.2 miNE (50°)4.6 mphPartly Cloudy
12:20 PM73.4 °F66.2 °F78 %30.57 in6.2 miNNE (30°)4.6 mphPartly Cloudy
12:50 PM73.4 °F66.2 °F78 %30.57 in6.2 miNE (50°)4.6 mphPartly Cloudy
1:20 PM75.2 °F66.2 °F73 %30.57 in6.2 miNE (50°)5.8 mphPartly Cloudy
1:50 PM75.2 °F66.2 °F73 %30.54 in6.2 miENE (60°)6.9 mphPartly Cloudy
2:20 PM77.0 °F68.0 °F74 %30.54 in6.2 miNE (40°)6.9 mphPartly Cloudy
2:50 PM77.0 °F68.0 °F74 %30.54 in6.2 miNE (40°)8.1 mphPartly Cloudy
3:20 PM77.0 °F68.0 °F74 %30.54 in6.2 miNE (40°)10.4 mphPartly Cloudy
3:50 PM77.0 °F68.0 °F74 %30.54 in6.2 miNE (50°)12.7 mphPartly Cloudy
4:20 PM75.2 °F66.2 °F73 %30.51 in6.2 miNE (50°)12.7 mphPartly Cloudy
4:50 PM75.2 °F66.2 °F73 %30.51 in6.2 miNE (50°)13.8 mphPartly Cloudy
5:20 PM75.2 °F64.4 °F69 %30.51 in6.2 miNE (40°)13.8 mphPartly Cloudy
5:50 PM73.4 °F64.4 °F73 %30.51 in6.2 miNE (50°)13.8 mphPartly Cloudy
6:20 PM73.4 °F64.4 °F73 %30.51 in6.2 miNE (50°)13.8 mphPartly Cloudy
6:50 PM73.4 °F64.4 °F73 %30.51 in6.2 miNE (50°)11.5 mphPartly Cloudy
7:20 PM73.4 °F64.4 °F73 %30.51 in6.2 miNE (50°)9.2 mphPartly Cloudy
Hourly data recorded from EGAE, located miles away from Ballykelly, Northern Ireland







STORIES FROM OUR PARTNERS